Погода в Учхозе Стенькино

Россия / Рязанская область     54°31′24″N   39°30′01″E
темп.,
°C
ветер,
м/с
пор.,
м/с
влажн.,
%
обл.,
%
осадки,
мм/ч
давл.,
гПа
погр.,
м
15 мая, сб
сб1500:00+15ю4792100 1.2 1012113
03:00+15вюв359499 2.1 101175
06:00+17ююв499639 2.0 1009243
09:00+20ю71186100 2.2 1009594
12:00+22ююз61076100 1.8 10101201
15:00+22ююз610664 2.2 10101452
18:00+20ююз611730 0.5 1011673
21:00+15ююз411870 0.6 1012201
16 мая, вс
вс1600:00+14ююз512884 0.0 1012251
03:00+12ююз410925 0.0 1013190
06:00+13ююз499092 0.0 1014230
09:00+18ююз46725 0.0 1014513
12:00+21ююз585911 0.1 10141452
15:00+22юз595710 0.4 10142167
18:00+21юз366813 0.1 1014288
21:00+16зюз1180100 0.1 101511
17 мая, пн
пн1700:00+15всв11827 0.0 101510
03:00+14вюв338465 0.0 101531
06:00+15в378913 0.1 1015164
09:00+20в57775 0.1 1015429
12:00+24вюв686458 0.0 1014843
15:00+25юв57615 0.0 1013975
18:00+23вюв510727 0.0 1012403
21:00+19вюв5158111 0.0 1011322
18 мая, вт
вт1800:00+17юв617784 0.0 1010327
03:00+16юв6186792 0.0 1010367
06:00+15юв5137599 0.0 1009290
09:00+20юв6146875 0.0 1009502
12:00+24ююв7135941 0.0 1009886
15:00+25ююв6115939 0.0 10081354
18:00+22ююв487092 0.0 1008328
21:00+18ююв348466 0.0 100852
19 мая, ср
ср1900:00+17ю5129297 0.4 1009437
03:00+15юв3793100 0.4 1007134
06:00+16ююв41092100 0.7 1007365
09:00+19ю61078100 1.0 1006771
12:00+19ю81281100 1.9 10061104
15:00+18ю61081100 4.7 10061091
18:00+17ююз69835 1.8 1006882
21:00+13юз5109320 1.9 1009302